Regional Weather Roundup
Issued by NWS

Home | Current Version | Previous Version | Graphics & Text | Print | Product List | Glossary On
Versions: 1 2 3 4 5 6 7 8 9 10 11 12 13 14 15 16 17 18 19 20 21 22 23 24 25 26 27 28 29 30 31 32 33 34 35 36 37 38 39 40 41 42 43 44 45 46 47 48 49 50
000
ASUS45 KSLC 012110
RWRUT
UTAH REGIONAL WEATHER ROUNDUP
NATIONAL WEATHER SERVICE SALT LAKE CITY UT
300 PM MDT SAT AUG 01 2015

UTZ001>011-023>025-012200-

NORTHERN UTAH

CITY           SKY/WX    TMP DP  RH WIND       PRES   REMARKS
BRIGHAM CITY   SUNNY     93  26   9 CALM      30.07F
HILL AFB       MOSUNNY   91  33  12 N8        30.11F
LOGAN          SUNNY     92  32  12 N5        30.09F
OGDEN          MOSUNNY   92  34  13 VRB6      30.08F
PROVO AIRPORT  MOSUNNY   88  41  19 VRB6      30.10F
SALT LAKE CITY PTSUNNY   93  32  11 NW9       30.06F
VERNAL         MOSUNNY   91  23   8 VRB5      30.11F
WENDOVER       PTSUNNY   93  30  10 SE9       30.09F
HEBER CITY     PTSUNNY   91  25   9 NW8       30.15F
WEST JORDAN    SUNNY     91  36  14 NW8G17    30.11F

$$

UTZ012>022-026-027-012200-

SOUTHERN/CENTRAL UTAH

CITY           SKY/WX    TMP DP  RH WIND       PRES   REMARKS
BLANDING       PTSUNNY   73  59  60 CALM      30.31F
BRYCE CANYON   CLOUDY    78  45  30 S10       30.34F
CEDAR CITY     CLOUDY    85  36  17 S7        30.18F
DELTA          PTSUNNY   93  25   8 N7        30.09F
HANKSVILLE     PTSUNNY   90  52  27 SE9G16    30.10F
MILFORD        PTSUNNY   92  34  13 N3        30.10F
MOAB/CYNLANDS  MOSUNNY   90  53  28 W9G16     30.07F
PRICE          SUNNY     90  33  13 SW8       30.17F
ST GEORGE      MOCLDY    91  54  27 W16       30.02S
KANAB          CLOUDY    86  54  32 S16       30.20F

$$

REGIONAL REPORTS     COLORADO/ARIZONA

CITY           SKY/WX    TMP DP  RH WIND       PRES   REMARKS
CRAIG, CO      MOSUNNY   91  31  11 E5        30.17F
GRAND JUNCTION PTSUNNY   87  49  26 SW5       30.08F
RIFLE          PTSUNNY   93  34  12 N6        30.10F
MONTROSE       CLOUDY    86  47  25 NW7       30.18F
CORTEZ         SUNNY     77  57  50 SE5       30.22F
PAGE, AZ       PTSUNNY   90  53  28 MISG      30.09F
GRAND CANYON   CLOUDY    73  54  51 VRB6      30.30F
KINGMAN        LGT RAIN  73  62  68 SW9       30.13F
FLAGSTAFF      PTSUNNY   73  54  51 VRB5      30.32F

$$

REGIONAL REPORTS    NEVADA/IDAHO/WYOMING

CITY           SKY/WX    TMP DP  RH WIND       PRES   REMARKS
LAS VEGAS, NV  CLOUDY    81  64  56 W14       30.00F
ELY            PTSUNNY   86  31  13 W15       30.22S
ELKO           MOSUNNY   95  21   7 NE6       30.12F
POCATELLO, ID  SUNNY     93  26   9 VRB3      30.11F
BURLEY         SUNNY     94  31  10 NW6       30.06F
EVANSTON, WY   MOSUNNY   83  23  11 VRB6G18   30.29F
ROCK SPRINGS   SUNNY     85  26  11 W8        30.24F
KEMMERER       SUNNY    N/A N/A N/A NW8       30.29F

$$


USA.gov is the U.S. government's official web portal to all federal, state and local government web resources and services.